QPF
0.00 0.00 0.01 0.03 0.02 0.01 0.01 0.00 0.00 0.00 0.00 0.00 0.01 0.01 0.01 0.01 0.00 0.00 0.00 0.00 0.01 0.01 0.01 0.02 0.02 0.02 0.01 0.01 0.01 0.00 0.00 0.00 0.00 0.00 0.01 0.01 0.01 0.01 0.01 0.00 0.00 0.01 0.01
0.00 0.00 0.01 0.02 0.01 0.01 0.01 0.01 0.01 0.01 0.01 0.01 0.01 0.01 0.01 0.01 0.00 0.00 0.00 0.00 0.01 0.01 0.01 0.01 0.01 0.01 0.01 0.00 0.00 0.00 0.00 0.00 0.00 0.00 0.00 0.01 0.01 0.01 0.01 0.01 0.01 0.01 0.01
0.00 0.00 0.00 0.01 0.01 0.01 0.01 0.01 0.01 0.02 0.01 0.01 0.01 0.01 0.01 0.01 0.01 0.00 0.00 0.00 0.00 0.01 0.01 0.01 0.01 0.01 0.00 0.00 0.00 0.00 0.01 0.01 0.00 0.00 0.00 0.00 0.01 0.01 0.01 0.01 0.01 0.02 0.01
0.00 0.00 0.00 0.00 0.01 0.01 0.01 0.01 0.01 0.01 0.01 0.01 0.01 0.01 0.01 0.01 0.01 0.01 0.00 0.00 0.00 0.01 0.01 0.01 0.01 0.00 0.00 0.00 0.00 0.00 0.00 0.01 0.00 0.00 0.00 0.00 0.00 0.01 0.01 0.01 0.01 0.01 0.01
0.00 0.00 0.00 0.00 0.00 0.01 0.01 0.01 0.01 0.01 0.01 0.01 0.01 0.01 0.01 0.01 0.01 0.01 0.00 0.00 0.00 0.01 0.01 0.01 0.00 0.00 0.00 0.00 0.00 0.00 0.00 0.00 0.00 0.00 0.00 0.00 0.00 0.01 0.01 0.00 0.00 0.00 0.00
0.00 0.00 0.00 0.00 0.00 0.01 0.01 0.01 0.01 0.01 0.01 0.01 0.01 0.01 0.01 0.00 0.00 0.00 0.00 0.00 0.00 0.00 0.00 0.00 0.00 0.00 0.00 0.00 0.00 0.00 0.00 0.00 0.00 0.00 0.00 0.00 0.00 0.01 0.00 0.00 0.00 0.00 0.00
0.00 0.00 0.00 0.00 0.00 0.00 0.00 0.00 0.01 0.01 0.00 0.00 0.00 0.00 0.00 0.00 0.00 0.00 0.00 0.00 0.00 0.00 0.00 0.00 0.00 0.00 0.00 0.00 0.00 0.00 0.00 0.00 0.00 0.00 0.00 0.00 0.00 0.00 0.00 0.00 0.00 0.00 0.00
0.00 0.00 0.00 0.00 0.00 0.00 0.00 0.00 0.01 0.01 0.00 0.00 0.00 0.00 0.00 0.00 0.00 0.00 0.00 0.00 0.00 0.00 0.00 0.00 0.00 0.00 0.00 0.00 0.00 0.00 0.00 0.00 0.00 0.00 0.00 0.00 0.00 0.00 0.00 0.00 0.00 0.00 0.00
0.00 0.00 0.00 0.00 0.00 0.00 0.00 0.00 0.00 0.00 0.00 0.00 0.00 0.00 0.00 0.00 0.00 0.00 0.00 0.00 0.00 0.00 0.00 0.00 0.00 0.00 0.00 0.00 0.00 0.00 0.00 0.00 0.00 0.00 0.00 0.00 0.00 0.00 0.00 0.00 0.00 0.00 0.00
0.00 0.00 0.00 0.00 0.00 0.00 0.00 0.00 0.00 0.00 0.00 0.00 0.00 0.00 0.00 0.00 0.00 0.00 0.00 0.00 0.00 0.00 0.00 0.00 0.00 0.00 0.00 0.00 0.00 0.00 0.00 0.00 0.00 0.00 0.00 0.00 0.00 0.00 0.00 0.00 0.00 0.00 0.00
0.00 0.00 0.00 0.00 0.00 0.00 0.00 0.00 0.00 0.00 0.00 0.00 0.00 0.00 0.00 0.00 0.00 0.00 0.00 0.00 0.00 0.00 0.00 0.00 0.00 0.00 0.00 0.00 0.00 0.00 0.00 0.00 0.00 0.00 0.00 0.00 0.00 0.00 0.00 0.00 0.00 0.00 0.00
0.00 0.00 0.00 0.00 0.00 0.00 0.00 0.00 0.00 0.00 0.00 0.00 0.00 0.00 0.00 0.00 0.00 0.00 0.00 0.00 0.00 0.00 0.00 0.00 0.00 0.00 0.00 0.00 0.00 0.00 0.00 0.00 0.00 0.00 0.00 0.00 0.00 0.00 0.00 0.00 0.00 0.00 0.00
0.00 0.00 0.00 0.00 0.00 0.00 0.00 0.00 0.00 0.00 0.00 0.00 0.00 0.00 0.00 0.00 0.00 0.00 0.00 0.00 0.00 0.00 0.00 0.00 0.00 0.00 0.00 0.00 0.00 0.00 0.00 0.00 0.00 0.00 0.00 0.00 0.00 0.00 0.00 0.00 0.00 0.00 0.00
0.00 0.00 0.00 0.00 0.00 0.00 0.00 0.00 0.00 0.00 0.00 0.00 0.00 0.00 0.00 0.00 0.00 0.00 0.00 0.00 0.00 0.00 0.00 0.00 0.00 0.00 0.00 0.00 0.00 0.00 0.00 0.00 0.00 0.00 0.00 0.00 0.00 0.00 0.00 0.00 0.00 0.00 0.00
0.00 0.00 0.00 0.00 0.00 0.00 0.00 0.00 0.00 0.00 0.00 0.00 0.00 0.00 0.00 0.00 0.00 0.00 0.00 0.00 0.00 0.00 0.00 0.00 0.00 0.00 0.00 0.00 0.00 0.00 0.00 0.00 0.00 0.00 0.00 0.00 0.00 0.00 0.00 0.00 0.00 0.00 0.00
0.00 0.00 0.00 0.00 0.00 0.00 0.00 0.00 0.00 0.00 0.00 0.00 0.00 0.00 0.00 0.00 0.00 0.00 0.00 0.00 0.00 0.00 0.00 0.00 0.00 0.00 0.00 0.00 0.00 0.00 0.00 0.00 0.00 0.00 0.00 0.00 0.00 0.00 0.00 0.00 0.00 0.00 0.00
0.00 0.00 0.00 0.00 0.00 0.00 0.00 0.00 0.00 0.00 0.00 0.00 0.00 0.00 0.00 0.00 0.00 0.00 0.00 0.00 0.00 0.00 0.00 0.00 0.00 0.00 0.00 0.00 0.00 0.00 0.00 0.00 0.00 0.00 0.00 0.00 0.00 0.00 0.00 0.00 0.00 0.00 0.00
0.00 0.00 0.00 0.00 0.00 0.00 0.00 0.00 0.00 0.00 0.00 0.00 0.00 0.00 0.00 0.00 0.00 0.00 0.00 0.00 0.00 0.00 0.00 0.00 0.00 0.00 0.00 0.00 0.00 0.00 0.00 0.00 0.00 0.00 0.00 0.00 0.00 0.00 0.00 0.00 0.00 0.00 0.00
0.00 0.00 0.00 0.00 0.00 0.00 0.00 0.00 0.00 0.00 0.00 0.00 0.00 0.00 0.00 0.00 0.00 0.00 0.00 0.00 0.00 0.00 0.00 0.00 0.00 0.00 0.00 0.00 0.00 0.00 0.00 0.00 0.00 0.00 0.00 0.00 0.00 0.00 0.00 0.00 0.00 0.00 0.00
0.00 0.00 0.00 0.00 0.00 0.00 0.00 0.00 0.00 0.00 0.00 0.00 0.00 0.00 0.00 0.00 0.00 0.00 0.00 0.00 0.00 0.00 0.00 0.00 0.00 0.00 0.00 0.00 0.00 0.00 0.00 0.00 0.00 0.00 0.00 0.00 0.00 0.00 0.00 0.00 0.00 0.00 0.00
0.00 0.00 0.00 0.00 0.00 0.00 0.00 0.00 0.00 0.00 0.00 0.00 0.00 0.00 0.00 0.00 0.00 0.00 0.00 0.00 0.00 0.00 0.00 0.00 0.00 0.00 0.00 0.00 0.00 0.00 0.00 0.00 0.00 0.00 0.00 0.00 0.00 0.00 0.00 0.00 0.00 0.00 0.00
0.00 0.00 0.00 0.00 0.00 0.00 0.00 0.00 0.00 0.00 0.00 0.00 0.00 0.01 0.01 0.01 0.01 0.01 0.01 0.01 0.00 0.00 0.00 0.00 0.00 0.00 0.00 0.00 0.00 0.00 0.00 0.00 0.00 0.00 0.00 0.00 0.00 0.00 0.00 0.00 0.00 0.00 0.00
0.00 0.00 0.00 0.00 0.00 0.00 0.00 0.00 0.00 0.01 0.01 0.01 0.01 0.01 0.01 0.01 0.01 0.01 0.01 0.01 0.01 0.01 0.01 0.01 0.01 0.01 0.01 0.00 0.00 0.00 0.01 0.01 0.00 0.00 0.00 0.00 0.00 0.00 0.00 0.00 0.00 0.00 0.00
0.00 0.00 0.00 0.00 0.00 0.00 0.00 0.00 0.00 0.00 0.00 0.00 0.01 0.01 0.01 0.01 0.01 0.01 0.01 0.01 0.01 0.01 0.01 0.01 0.01 0.01 0.01 0.01 0.01 0.00 0.01 0.01 0.01 0.01 0.00 0.00 0.00 0.00 0.00 0.00 0.00 0.00 0.00
0.00 0.00 0.00 0.00 0.00 0.00 0.00 0.00 0.00 0.00 0.00 0.00 0.01 0.01 0.01 0.01 0.01 0.01 0.01 0.01 0.01 0.01 0.01 0.01 0.01 0.01 0.01 0.01 0.01 0.01 0.01 0.01 0.01 0.01 0.01 0.00 0.00 0.00 0.00 0.00 0.00 0.00 0.00
0.00 0.00 0.00 0.00 0.00 0.00 0.00 0.00 0.00 0.00 0.01 0.01 0.01 0.01 0.01 0.01 0.01 0.01 0.01 0.01 0.01 0.01 0.01 0.01 0.01 0.01 0.01 0.01 0.01 0.01 0.01 0.01 0.01 0.01 0.01 0.00 0.00 0.00 0.00 0.00 0.00 0.00 0.00
MSLP
1021.16 1020.88 1020.70 1020.69 1020.82 1021.06 1021.34 1021.60 1021.77 1021.83 1021.79 1021.68 1021.57 1021.49 1021.49 1021.55 1021.67 1021.79 1021.89 1021.92 1021.88 1021.78 1021.66 1021.55 1021.49 1021.50 1021.57 1021.68 1021.81 1021.91 1021.98 1022.00 1021.96 1021.89 1021.81 1021.74 1021.68 1021.65 1021.63 1021.62 1021.61 1021.58 1021.54
1021.05 1020.86 1020.76 1020.80 1020.97 1021.24 1021.54 1021.82 1022.01 1022.10 1022.10 1022.04 1021.97 1021.94 1021.97 1022.06 1022.19 1022.33 1022.43 1022.48 1022.46 1022.38 1022.28 1022.19 1022.14 1022.15 1022.20 1022.30 1022.39 1022.47 1022.52 1022.52 1022.49 1022.43 1022.36 1022.31 1022.27 1022.24 1022.22 1022.21 1022.18 1022.14 1022.10
1021.00 1020.88 1020.84 1020.93 1021.13 1021.42 1021.74 1022.04 1022.26 1022.39 1022.42 1022.41 1022.38 1022.39 1022.45 1022.55 1022.69 1022.83 1022.94 1022.99 1022.98 1022.92 1022.85 1022.78 1022.74 1022.75 1022.79 1022.86 1022.93 1022.98 1023.01 1023.00 1022.98 1022.94 1022.91 1022.88 1022.86 1022.85 1022.83 1022.81 1022.76 1022.71 1022.65
1021.02 1020.97 1020.98 1021.10 1021.33 1021.63 1021.96 1022.27 1022.51 1022.66 1022.74 1022.76 1022.77 1022.80 1022.88 1022.99 1023.13 1023.26 1023.36 1023.41 1023.42 1023.38 1023.34 1023.29 1023.27 1023.28 1023.32 1023.36 1023.41 1023.44 1023.45 1023.45 1023.44 1023.44 1023.43 1023.44 1023.44 1023.44 1023.42 1023.38 1023.32 1023.25 1023.18
1021.13 1021.13 1021.19 1021.33 1021.57 1021.88 1022.21 1022.51 1022.75 1022.92 1023.01 1023.06 1023.10 1023.16 1023.24 1023.35 1023.48 1023.60 1023.69 1023.75 1023.77 1023.76 1023.74 1023.73 1023.74 1023.76 1023.79 1023.83 1023.86 1023.87 1023.88 1023.88 1023.89 1023.90 1023.93 1023.96 1023.98 1023.98 1023.95 1023.90 1023.82 1023.74 1023.67
1021.31 1021.35 1021.44 1021.61 1021.86 1022.16 1022.47 1022.75 1022.98 1023.14 1023.25 1023.31 1023.37 1023.45 1023.54 1023.65 1023.78 1023.89 1023.97 1024.03 1024.06 1024.08 1024.10 1024.12 1024.16 1024.20 1024.24 1024.28 1024.30 1024.30 1024.30 1024.30 1024.32 1024.35 1024.39 1024.43 1024.46 1024.45 1024.41 1024.34 1024.26 1024.17 1024.10
1021.51 1021.59 1021.71 1021.91 1022.16 1022.45 1022.74 1023.00 1023.20 1023.35 1023.46 1023.53 1023.61 1023.70 1023.82 1023.94 1024.06 1024.16 1024.25 1024.30 1024.35 1024.39 1024.44 1024.49 1024.56 1024.63 1024.69 1024.73 1024.75 1024.75 1024.74 1024.74 1024.76 1024.79 1024.83 1024.87 1024.88 1024.86 1024.81 1024.72 1024.62 1024.53 1024.47
1021.70 1021.81 1021.98 1022.20 1022.47 1022.75 1023.02 1023.25 1023.42 1023.55 1023.65 1023.75 1023.85 1023.98 1024.11 1024.25 1024.38 1024.49 1024.57 1024.62 1024.67 1024.72 1024.78 1024.87 1024.96 1025.06 1025.14 1025.19 1025.21 1025.21 1025.20 1025.19 1025.20 1025.22 1025.25 1025.26 1025.26 1025.22 1025.15 1025.05 1024.94 1024.85 1024.80
1021.82 1021.98 1022.20 1022.47 1022.76 1023.04 1023.29 1023.49 1023.64 1023.76 1023.86 1023.98 1024.12 1024.28 1024.46 1024.63 1024.78 1024.88 1024.95 1025.00 1025.03 1025.08 1025.15 1025.24 1025.36 1025.48 1025.57 1025.64 1025.67 1025.67 1025.66 1025.64 1025.62 1025.62 1025.63 1025.62 1025.59 1025.53 1025.44 1025.33 1025.22 1025.13 1025.09
1021.87 1022.09 1022.37 1022.69 1023.01 1023.30 1023.54 1023.72 1023.85 1023.96 1024.08 1024.23 1024.41 1024.63 1024.85 1025.06 1025.22 1025.33 1025.39 1025.41 1025.42 1025.45 1025.51 1025.60 1025.72 1025.85 1025.97 1026.05 1026.09 1026.10 1026.07 1026.04 1026.01 1025.98 1025.95 1025.92 1025.87 1025.79 1025.69 1025.57 1025.46 1025.38 1025.34
1021.83 1022.13 1022.48 1022.85 1023.21 1023.51 1023.74 1023.91 1024.04 1024.15 1024.29 1024.47 1024.70 1024.97 1025.24 1025.48 1025.67 1025.78 1025.83 1025.82 1025.80 1025.80 1025.83 1025.91 1026.03 1026.17 1026.29 1026.38 1026.43 1026.44 1026.41 1026.36 1026.30 1026.25 1026.20 1026.14 1026.08 1025.99 1025.88 1025.76 1025.66 1025.58 1025.54
1021.72 1022.09 1022.51 1022.93 1023.32 1023.64 1023.88 1024.04 1024.17 1024.29 1024.45 1024.66 1024.94 1025.25 1025.57 1025.85 1026.05 1026.17 1026.20 1026.17 1026.13 1026.09 1026.10 1026.16 1026.26 1026.39 1026.52 1026.61 1026.66 1026.66 1026.62 1026.56 1026.48 1026.40 1026.33 1026.26 1026.19 1026.10 1025.99 1025.88 1025.77 1025.69 1025.64
1021.55 1021.98 1022.45 1022.92 1023.34 1023.67 1023.91 1024.08 1024.20 1024.33 1024.51 1024.76 1025.07 1025.42 1025.77 1026.07 1026.30 1026.42 1026.45 1026.42 1026.35 1026.30 1026.28 1026.33 1026.42 1026.53 1026.65 1026.74 1026.78 1026.76 1026.71 1026.62 1026.53 1026.43 1026.34 1026.26 1026.19 1026.10 1026.01 1025.90 1025.80 1025.70 1025.63
1021.32 1021.79 1022.30 1022.80 1023.23 1023.57 1023.82 1023.98 1024.12 1024.26 1024.46 1024.72 1025.05 1025.43 1025.80 1026.12 1026.37 1026.51 1026.55 1026.53 1026.47 1026.42 1026.40 1026.43 1026.51 1026.61 1026.71 1026.77 1026.79 1026.76 1026.68 1026.57 1026.45 1026.34 1026.24 1026.16 1026.08 1026.00 1025.92 1025.82 1025.71 1025.60 1025.50
1021.03 1021.52 1022.04 1022.54 1022.98 1023.32 1023.58 1023.76 1023.91 1024.07 1024.28 1024.56 1024.90 1025.27 1025.66 1025.99 1026.26 1026.42 1026.50 1026.51 1026.49 1026.46 1026.46 1026.50 1026.57 1026.66 1026.73 1026.77 1026.75 1026.69 1026.58 1026.44 1026.29 1026.16 1026.05 1025.96 1025.89 1025.82 1025.74 1025.64 1025.53 1025.39 1025.25
1020.67 1021.15 1021.66 1022.14 1022.58 1022.94 1023.22 1023.43 1023.61 1023.79 1024.01 1024.30 1024.63 1025.00 1025.37 1025.71 1026.00 1026.20 1026.33 1026.40 1026.44 1026.47 1026.51 1026.57 1026.64 1026.71 1026.75 1026.75 1026.70 1026.59 1026.45 1026.27 1026.10 1025.95 1025.82 1025.72 1025.65 1025.58 1025.50 1025.40 1025.27 1025.11 1024.93
1020.24 1020.68 1021.16 1021.63 1022.06 1022.44 1022.76 1023.02 1023.25 1023.47 1023.71 1024.00 1024.32 1024.66 1025.02 1025.35 1025.65 1025.89 1026.09 1026.23 1026.35 1026.46 1026.55 1026.65 1026.73 1026.79 1026.80 1026.76 1026.67 1026.52 1026.33 1026.13 1025.93 1025.75 1025.61 1025.49 1025.40 1025.32 1025.24 1025.13 1024.98 1024.80 1024.58
1019.74 1020.13 1020.57 1021.02 1021.47 1021.88 1022.26 1022.59 1022.89 1023.16 1023.44 1023.72 1024.02 1024.33 1024.65 1024.97 1025.27 1025.55 1025.80 1026.03 1026.23 1026.42 1026.58 1026.72 1026.82 1026.87 1026.86 1026.79 1026.66 1026.48 1026.26 1026.03 1025.81 1025.61 1025.44 1025.30 1025.19 1025.09 1024.98 1024.85 1024.69 1024.49 1024.24
1019.20 1019.54 1019.93 1020.37 1020.83 1021.30 1021.75 1022.18 1022.56 1022.90 1023.21 1023.50 1023.77 1024.04 1024.31 1024.59 1024.89 1025.19 1025.49 1025.80 1026.08 1026.35 1026.58 1026.76 1026.88 1026.93 1026.91 1026.82 1026.67 1026.47 1026.23 1025.98 1025.74 1025.52 1025.32 1025.16 1025.01 1024.88 1024.74 1024.59 1024.41 1024.20 1023.94
1018.64 1018.93 1019.29 1019.72 1020.22 1020.74 1021.28 1021.80 1022.28 1022.69 1023.04 1023.33 1023.57 1023.79 1024.01 1024.25 1024.52 1024.83 1025.16 1025.52 1025.88 1026.21 1026.49 1026.71 1026.86 1026.92 1026.90 1026.81 1026.66 1026.45 1026.22 1025.97 1025.72 1025.48 1025.25 1025.05 1024.86 1024.68 1024.51 1024.34 1024.15 1023.93 1023.67
1018.11 1018.36 1018.70 1019.13 1019.65 1020.24 1020.85 1021.46 1022.02 1022.50 1022.88 1023.17 1023.38 1023.56 1023.72 1023.91 1024.15 1024.45 1024.81 1025.20 1025.60 1025.97 1026.30 1026.56 1026.73 1026.81 1026.81 1026.73 1026.59 1026.41 1026.19 1025.96 1025.71 1025.45 1025.20 1024.95 1024.71 1024.48 1024.27 1024.07 1023.87 1023.66 1023.43
1017.66 1017.89 1018.20 1018.62 1019.16 1019.78 1020.45 1021.13 1021.75 1022.28 1022.69 1022.98 1023.17 1023.30 1023.42 1023.57 1023.77 1024.06 1024.42 1024.82 1025.25 1025.66 1026.01 1026.30 1026.49 1026.59 1026.62 1026.57 1026.47 1026.33 1026.14 1025.93 1025.69 1025.42 1025.14 1024.84 1024.54 1024.27 1024.01 1023.78 1023.58 1023.38 1023.18
1017.33 1017.54 1017.82 1018.22 1018.74 1019.37 1020.06 1020.76 1021.42 1021.98 1022.41 1022.70 1022.89 1023.00 1023.09 1023.21 1023.40 1023.67 1024.03 1024.44 1024.88 1025.30 1025.67 1025.97 1026.18 1026.31 1026.37 1026.36 1026.31 1026.21 1026.07 1025.89 1025.66 1025.38 1025.06 1024.72 1024.37 1024.04 1023.74 1023.49 1023.27 1023.10 1022.93
1017.15 1017.33 1017.57 1017.92 1018.39 1018.98 1019.65 1020.34 1021.01 1021.58 1022.02 1022.33 1022.53 1022.65 1022.75 1022.87 1023.06 1023.34 1023.70 1024.12 1024.55 1024.98 1025.35 1025.65 1025.88 1026.04 1026.13 1026.17 1026.16 1026.12 1026.02 1025.87 1025.65 1025.36 1025.02 1024.63 1024.23 1023.84 1023.50 1023.22 1023.00 1022.83 1022.69
1017.10 1017.25 1017.44 1017.71 1018.10 1018.62 1019.23 1019.88 1020.52 1021.09 1021.56 1021.90 1022.14 1022.30 1022.45 1022.61 1022.84 1023.14 1023.51 1023.94 1024.37 1024.78 1025.15 1025.45 1025.69 1025.86 1025.98 1026.06 1026.10 1026.10 1026.04 1025.91 1025.70 1025.41 1025.03 1024.61 1024.16 1023.74 1023.36 1023.05 1022.82 1022.65 1022.52
1017.19 1017.30 1017.41 1017.59 1017.88 1018.30 1018.82 1019.41 1020.02 1020.59 1021.08 1021.48 1021.79 1022.04 1022.27 1022.51 1022.80 1023.14 1023.54 1023.97 1024.40 1024.80 1025.15 1025.44 1025.67 1025.85 1025.99 1026.10 1026.18 1026.21 1026.18 1026.07 1025.87 1025.57 1025.18 1024.72 1024.24 1023.78 1023.37 1023.04 1022.79 1022.60 1022.46
Thickness
5685 5687 5688 5688 5688 5689 5689 5690 5691 5692 5693 5694 5694 5694 5695 5695 5695 5696 5696 5696 5696 5696 5695 5694 5694 5693 5691 5690 5689 5688 5686 5685 5684 5683 5682 5681 5680 5678 5676 5675 5674 5673 5672
5689 5687 5687 5687 5687 5687 5687 5688 5689 5689 5690 5691 5691 5691 5692 5692 5692 5692 5692 5692 5692 5691 5691 5690 5689 5688 5687 5686 5685 5683 5682 5680 5679 5678 5677 5676 5675 5673 5672 5671 5670 5668 5667
5689 5687 5686 5686 5685 5685 5685 5686 5687 5687 5687 5688 5688 5689 5689 5689 5689 5688 5688 5688 5688 5687 5686 5686 5685 5683 5682 5682 5680 5679 5677 5676 5674 5673 5672 5671 5670 5669 5667 5666 5665 5664 5662
5688 5687 5685 5685 5684 5684 5684 5684 5684 5685 5685 5685 5686 5686 5686 5686 5685 5685 5685 5685 5684 5683 5682 5682 5681 5680 5679 5678 5676 5675 5673 5671 5670 5669 5668 5667 5666 5664 5663 5661 5660 5659 5658
5687 5686 5685 5684 5683 5683 5683 5683 5682 5683 5683 5683 5684 5684 5683 5682 5682 5682 5681 5681 5680 5680 5679 5678 5677 5676 5675 5674 5673 5671 5669 5667 5666 5665 5664 5663 5662 5660 5659 5657 5655 5654 5653
5686 5685 5684 5684 5683 5682 5682 5682 5681 5681 5681 5681 5681 5681 5680 5680 5679 5678 5678 5678 5677 5676 5675 5674 5673 5672 5671 5670 5669 5668 5666 5664 5663 5661 5660 5659 5658 5656 5655 5653 5651 5650 5648
5686 5685 5684 5683 5682 5682 5681 5681 5680 5680 5680 5679 5679 5679 5678 5678 5677 5676 5675 5675 5674 5673 5672 5671 5670 5669 5668 5667 5666 5664 5662 5661 5660 5658 5657 5655 5654 5653 5651 5649 5647 5646 5644
5686 5684 5683 5682 5682 5681 5681 5680 5679 5679 5678 5678 5677 5677 5676 5676 5675 5674 5673 5672 5671 5671 5670 5669 5667 5666 5665 5664 5662 5661 5660 5658 5656 5655 5653 5652 5651 5649 5647 5646 5644 5642 5640
5686 5684 5683 5682 5681 5681 5680 5679 5679 5678 5677 5676 5676 5675 5674 5674 5673 5672 5671 5670 5669 5668 5667 5666 5665 5664 5662 5661 5659 5658 5657 5655 5654 5652 5650 5649 5647 5646 5644 5642 5640 5639 5637
5684 5684 5683 5682 5681 5680 5679 5679 5678 5677 5676 5675 5675 5674 5673 5672 5671 5670 5669 5668 5667 5666 5665 5663 5662 5661 5660 5659 5657 5655 5654 5652 5651 5649 5648 5646 5645 5643 5641 5639 5637 5635 5633
5683 5683 5683 5683 5681 5680 5679 5678 5677 5676 5675 5675 5674 5673 5672 5671 5670 5668 5667 5666 5665 5664 5663 5661 5660 5659 5658 5657 5655 5653 5652 5650 5648 5647 5645 5644 5642 5641 5638 5636 5634 5632 5629
5684 5684 5684 5684 5683 5681 5680 5678 5677 5676 5675 5674 5673 5672 5671 5670 5669 5667 5666 5665 5664 5662 5661 5660 5658 5657 5656 5655 5653 5652 5650 5648 5646 5645 5643 5642 5640 5638 5636 5633 5631 5629 5626
5689 5687 5686 5685 5684 5683 5681 5679 5678 5677 5676 5675 5673 5672 5671 5669 5668 5666 5665 5663 5662 5661 5660 5658 5657 5655 5654 5653 5651 5650 5648 5646 5645 5643 5641 5640 5638 5636 5634 5631 5628 5626 5623
5691 5690 5688 5687 5686 5684 5683 5681 5679 5678 5676 5675 5674 5672 5671 5669 5667 5666 5664 5663 5661 5660 5658 5657 5655 5654 5652 5651 5650 5648 5646 5644 5643 5641 5639 5637 5635 5633 5631 5629 5626 5623 5621
5694 5693 5691 5689 5688 5686 5684 5682 5680 5679 5677 5676 5674 5673 5671 5669 5667 5665 5664 5662 5661 5659 5657 5656 5654 5653 5651 5649 5648 5646 5644 5642 5641 5639 5637 5635 5633 5630 5628 5626 5623 5621 5618
5698 5696 5694 5692 5690 5688 5686 5684 5682 5680 5679 5677 5675 5674 5672 5670 5668 5666 5664 5662 5660 5658 5656 5655 5653 5651 5649 5647 5646 5644 5642 5640 5638 5636 5634 5632 5630 5627 5624 5622 5620 5617 5615
5701 5699 5697 5695 5692 5690 5688 5686 5684 5682 5680 5678 5676 5674 5672 5670 5668 5666 5663 5661 5660 5657 5655 5653 5651 5648 5646 5644 5643 5641 5639 5638 5636 5634 5631 5629 5627 5624 5621 5618 5615 5612 5610
5703 5701 5699 5697 5694 5691 5689 5687 5685 5683 5681 5679 5677 5675 5673 5671 5668 5666 5663 5661 5659 5656 5653 5651 5648 5645 5643 5641 5639 5638 5636 5634 5633 5631 5628 5626 5623 5620 5617 5614 5610 5607 5604
5704 5702 5700 5698 5695 5693 5690 5688 5685 5683 5681 5679 5677 5675 5672 5670 5668 5665 5662 5660 5657 5654 5651 5648 5645 5642 5639 5637 5635 5634 5632 5631 5629 5627 5625 5623 5619 5616 5612 5609 5606 5602 5598
5705 5704 5701 5699 5696 5693 5690 5686 5684 5682 5680 5678 5676 5674 5672 5669 5666 5663 5660 5657 5654 5651 5647 5644 5641 5638 5635 5633 5631 5629 5629 5628 5626 5624 5621 5618 5614 5611 5607 5603 5599 5595 5592
5705 5703 5702 5699 5697 5693 5689 5686 5683 5681 5679 5677 5675 5672 5670 5667 5665 5661 5658 5654 5651 5647 5644 5641 5637 5633 5630 5627 5624 5624 5625 5625 5622 5620 5616 5612 5608 5604 5599 5595 5591 5587 5584
5705 5704 5702 5700 5697 5695 5691 5688 5685 5681 5677 5675 5672 5670 5667 5665 5662 5658 5655 5651 5648 5644 5639 5636 5631 5627 5624 5621 5617 5616 5616 5617 5616 5614 5610 5605 5601 5596 5592 5588 5583 5580 5576
5704 5704 5703 5700 5698 5695 5691 5686 5681 5677 5674 5671 5669 5667 5665 5662 5659 5656 5652 5648 5644 5640 5635 5631 5627 5622 5618 5614 5610 5607 5606 5608 5606 5608 5603 5598 5593 5588 5583 5580 5575 5572 5568
5702 5702 5701 5699 5696 5693 5689 5684 5680 5676 5673 5670 5667 5664 5661 5658 5655 5652 5648 5644 5639 5635 5631 5626 5622 5617 5612 5608 5602 5598 5595 5593 5591 5597 5596 5590 5585 5579 5575 5571 5567 5563 5559
5697 5696 5696 5695 5693 5691 5687 5683 5678 5673 5670 5666 5662 5659 5656 5653 5650 5646 5642 5638 5633 5629 5624 5620 5615 5610 5605 5601 5595 5590 5585 5580 5577 5577 5585 5583 5577 5571 5566 5562 5558 5554 5550
5688 5688 5689 5690 5689 5687 5684 5680 5675 5670 5665 5661 5657 5653 5649 5645 5642 5638 5635 5630 5625 5621 5616 5611 5606 5601 5596 5591 5586 5580 5575 5571 5567 5564 5568 5571 5569 5566 5560 5554 5549 5545 5540